Miscellaneous Local Product
Issued by NWS Hastings, NE

Home | Current Version | Previous Version | Graphics & Text | Print | Product List | Glossary On
Versions: 1 2 3 4 5 6 7 8 9 10 11 12 13 14 15 16 17 18 19 20 21 22 23 24 25 26 27 28 29 30 31 32 33 34 35 36 37 38 39 40 41 42 43 44 45 46 47 48 49 50
000
AXUS43 KGID 220002
MISGRI

GID CWA HOURLY WEATHER ROUNDUP
NATIONAL WEATHER SERVICE HASTINGS NE
600 PM CST SAT JAN 21 2017

NOTE: "FAIR" INDICATES FEW OR NO CLOUDS BELOW 12,000 FEET WITH NO
SIGNIFICANT WEATHER AND/OR OBSTRUCTIONS TO VISIBILITY.

...SOUTH CENTRAL NEBRASKA...

CITY           SKY/WX    TMP DP  RH WIND       PRES   REMARKS
GRAND ISLAND   CLEAR     41  36  82 CALM      29.49R
HASTINGS       CLEAR     42  37  82 CALM      29.49R
ORD            CLEAR     40  31  70 CALM      29.47R
YORK           CLEAR     46  39  76 CALM      29.49R
AURORA         CLEAR     43  38  82 CALM      29.49R
LEXINGTON      CLEAR     39  32  78 CALM      29.47R
HOLDREGE       CLEAR     42  36  80 CALM      29.47R
HEBRON         CLEAR     39  35  86 CALM      29.48R

...NEBRASKA PANHANDLE...

CITY           SKY/WX    TMP DP  RH WIND       PRES   REMARKS
CHADRON        CLEAR     33  27  78 W5        29.51R WCI  29
ALLIANCE       CLOUDY    34  26  72 SW5       29.47R WCI  30
SCOTTSBLUFF    CLOUDY    36  30  79 CALM      29.49R
SIDNEY         CLOUDY    33  25  72 SE6       29.48R WCI  28

...WESTERN AND NORTH CENTRAL NEBRASKA...

CITY           SKY/WX    TMP DP  RH WIND       PRES   REMARKS
VALENTINE      CLEAR     36  29  75 W5        29.49R WCI  32
AINSWORTH      CLEAR     39  31  72 NW5       29.49R
ONEILL         CLEAR     41  32  69 NW6       29.48R
BROKEN BOW     CLEAR     41  35  79 NE3       29.47R
IMPERIAL       CLOUDY    36  29  75 N8        29.48R WCI  30
NORTH PLATTE   CLEAR     37  29  72 CALM      29.47R
MCCOOK         CLOUDY    44  29  55 CALM      29.46R

...EASTERN NEBRASKA...

CITY           SKY/WX    TMP DP  RH WIND       PRES   REMARKS
NORFOLK        CLEAR     40  33  76 W3        29.47R
SO SIOUX CITY  CLEAR     36  34  92 NW5       29.50R WCI  32
TEKAMAH        CLEAR     40  37  89 W6        29.49R
COLUMBUS       CLEAR     39  32  75 CALM      29.49R
ALBION         MOCLDY    43  24  47 NW3       29.48R
OMAHA EPPLEY   PTCLDY    47  36  65 CALM      29.49R
OFFUTT AFB     CLEAR     42  39  91 W3        29.49R
MILLARD        CLEAR     45  38  77 CALM      29.49R
LINCOLN        CLEAR     42  36  79 CALM      29.51R
NEBRASKA CITY  CLEAR     47  37  66 CALM      29.51R
BEATRICE       CLEAR     45  39  78 CALM      29.49R
FALLS CITY     CLEAR     49  39  68 CALM      29.50R

...NORTHERN KANSAS...

CITY           SKY/WX    TMP DP  RH WIND       PRES   REMARKS
GOODLAND       CLOUDY    36  30  79 NE9       29.43R WCI  29
HILL CITY      CLEAR     44  36  73 E9        29.45R
NORTON         CLEAR     41  28  60 CALM      29.45R
PHILLIPSBURG   CLEAR     46  36  66 NE5       29.47R
SMITH CENTER   CLEAR     39  36  87 E5        29.48R
HAYS           PTCLDY    44  37  76 E9        29.43R
RUSSELL        CLOUDY    45  36  70 E8        29.42R
CONCORDIA      CLOUDY    47  38  71 CALM      29.47R
SALINA         MOCLDY    50  39  66 NE8       29.46R
TOPEKA         LGT RAIN  52  41  66 CALM      29.50R



USA.gov is the U.S. government's official web portal to all federal, state and local government web resources and services.